Location: St. Louis
(38.6270°N, 90.1994°W)
Time: 09:05:16
(UTC-06:00)

Vanguard 2 Rocket - Pass Details

Date: 01 December 2021
Orbit: 553 x 3325 km, 32.9° (Epoch: 23 January)

Event Time Altitude Azimuth Distance (km) Brightness Sun altitude
Rises 16:31:54 0° 199° (SSW) 3,048 10.5 0.5°
Reaches altitude 10° 16:34:49 10° 177° (S) 2,389 9.4 0.0°
Maximum altitude 16:38:17 17° 138° (SE) 2,307 8.9 -0.6°
Drops below altitude 10° 16:42:46 10° 102° (ESE) 3,261 9.3 -1.3°
Sets 16:47:49 0° 85° (E) 4,832 10.0 -2.2°
